Retour au catalogue

CRRES DEB

CANISTER

ActifGTO
NORAD 21591·DEBRIS·🇺🇸 United States

Lancé Jul 25, 1990 depuis Cape Canaveral Space Force Station

Loading…

TLE

VieillissantSource: Space-Track

Époque: Sep 14, 2026, 09:40 UTC

1 21591U 90065G   26257.40310505 -.00000068  00000-0  10743-2 0  9990
2 21591  18.9424 312.1348 7023718 255.3628  51.6865  2.41031033119783

Suivez CRRES DEB en temps réel avec AllMySat

Download on the App Store